User: anonymous   Login
Location: Geroldsau
(48.7259°N, 8.2466°E)
Time: 23:44:56
(UTC+00:00)
Language:

Alouette 2 Rocket - Orbit

View from above orbital plane
View from above orbital plane
View from above satellite
View from above satellite

Ground track
Ground track

The orbit data is extracted from the following two-line orbital elements,

1  1807U 65098C   21271.42077010  .00000235  00000-0  80637-4 0  9996
2  1807  79.8371  56.3128 1350088 274.3449  70.4978 12.23887591461817
Epoch (UTC): 28 September 2021 10:05:54
Eccentricity: 0.1350088
inclination: 79.8371°
perigee height: 502 km
apogee height: 2649 km
right ascension of ascending node: 56.3128°
argument of perigee: 274.3449°
revolutions per day: 12.23887591
mean anomaly at epoch: 70.4978°
orbit number at epoch: 46181

The dashed part of the orbit path shows where the satellite is in the earth's shadow,  

DLR